Mobridge, SD

9:18 AM CDT on July 23, 2017 (GMT -0500)
Mobridge Municipal

Weather History for KMBG - December, 2013

Change the Weather History Date:

Wednesday, December 4, 2013

  Actual Average Record
Temperature  
Mean Temperature 6 °F 22 °F  
Max Temperature 10 °F 32 °F 69 °F (1965)
Min Temperature 2 °F 11 °F -24 °F (1927)
Degree Days  
Heating Degree Days 59 43  
Month to date heating degree days 167 170  
Since 1 July heating degree days 1975 1936  
Cooling Degree Days 0 0  
Month to date cooling degree days 0 0  
Year to date cooling degree days 700 644  
Moisture  
Dew Point 3 °F    
Average Humidity 81    
Maximum Humidity 88    
Minimum Humidity 73    
Precipitation  
Precipitation 0.09 in 0.01 in 0.67 in (1960)
Month to date precipitation 0.26 0.03  
Year to date precipitation 23.18 17.46  
Snow  
Snow 0.00 in - - ()
Month to date snowfall 3.5  
Since 1 July snowfall 4.5  
Snow Depth 4.00 in    
Sea Level Pressure  
Sea Level Pressure 29.92 in    
Wind  
Wind Speed 24 mph (NNW)    
Max Wind Speed 35 mph    
Max Gust Speed 43 mph    
Visibility 2 miles    
Events Fog , Snow    
T = Trace of Precipitation, MM = Missing Value Source: NWS Daily Summary

Daily Weather History Graph

Daily Weather History Graph

Search for Another Location

Airport or City:

Trip Planner

Search our weather history database for the weather conditions in past years. The results will help you decide how hot, cold, wet, or windy it might be!

Date:

Astronomy

Dec. 04, 2013 Rise Set
Actual Time 8:05 AM CST 4:58 PM CST
Civil Twilight 7:31 AM CST 5:32 PM CST
Nautical Twilight 6:54 AM CST 6:09 PM CST
Astronomical Twilight 6:18 AM CST 6:45 PM CST
Moon 9:32 AM CST (12/4) 7:13 PM CST (12/4)
Length of Visible Light 10h 00m
Length of Day
8h 53m
Waxing Crescent, 4% of the Moon is Illuminated
Dec 4
Waxing Crescent
Dec 9
First Quarter
Dec 17
Full
Dec 25
Last Quarter
Jan 1
New

Hourly Weather History & Observations

Time (CST) Temp. Windchill Dew Point Humidity Pressure Visibility Wind Dir Wind Speed Gust Speed Precip Events Conditions
12:07 AM 10.4 °F -7.7 °F 6.8 °F 85% 29.88 in 1.8 mi NNW 18.4 mph 23.0 mph 0.01 in Snow Light Snow
12:18 AM 10.4 °F -6.6 °F 6.8 °F 85% 29.87 in 2.0 mi NNW 16.1 mph - 0.01 in Snow Light Snow
12:52 AM 10.0 °F -8.6 °F 6.1 °F 84% 29.98 in 2.5 mi NNW 19.6 mph 26.5 mph 0.01 in Snow Light Snow
1:06 AM 10.4 °F -6.6 °F 6.8 °F 85% 29.88 in 2.0 mi NNW 16.1 mph 26.5 mph 0.00 in Snow Light Snow
1:24 AM 10.4 °F -8.2 °F 5.0 °F 79% 29.86 in 1.8 mi NNW 19.6 mph 24.2 mph 0.00 in Snow Light Snow
1:52 AM 10.0 °F -8.6 °F 6.1 °F 84% 29.96 in 1.5 mi NNW 19.6 mph 27.6 mph 0.01 in Snow Light Snow
2:08 AM 10.4 °F -7.2 °F 5.0 °F 79% 29.88 in 1.2 mi NNW 17.3 mph - 0.00 in Snow Light Snow
2:52 AM 9.0 °F -9.0 °F 5.0 °F 84% 29.97 in 1.2 mi NNW 17.3 mph - 0.01 in Snow Light Snow
3:52 AM 9.0 °F -9.0 °F 5.0 °F 84% 29.95 in 1.8 mi NNW 17.3 mph 23.0 mph 0.01 in Snow Light Snow
4:04 AM 8.6 °F -8.9 °F 5.0 °F 85% 29.83 in 2.0 mi North 16.1 mph 24.2 mph 0.00 in Snow Light Snow
4:11 AM 10.4 °F -7.2 °F 5.0 °F 79% 29.82 in 2.5 mi North 17.3 mph - 0.00 in Snow Light Snow
4:52 AM 9.0 °F -10.0 °F 3.9 °F 80% 29.96 in 2.5 mi NNW 19.6 mph 24.2 mph 0.00 in Snow Light Snow
5:24 AM 8.6 °F -10.5 °F 3.2 °F 79% 29.83 in 1.5 mi NNW 19.6 mph 25.3 mph 0.00 in Snow Light Snow
5:35 AM 8.6 °F -11.0 °F 3.2 °F 79% 29.82 in 1.2 mi NNW 20.7 mph - 0.00 in Snow Light Snow
5:52 AM 9.0 °F -10.0 °F 3.9 °F 80% 29.94 in 1.2 mi NNW 19.6 mph 25.3 mph 0.01 in Snow Light Snow
6:06 AM 8.6 °F -11.0 °F 3.2 °F 79% 29.83 in 1.5 mi NNW 20.7 mph - 0.00 in Snow Light Snow
6:52 AM 8.1 °F -12.2 °F 3.9 °F 83% 29.93 in 1.5 mi NNW 21.9 mph 28.8 mph 0.01 in Snow Light Snow
7:52 AM 8.1 °F -11.2 °F 3.0 °F 80% 29.93 in 1.2 mi North 19.6 mph 27.6 mph 0.00 in Snow Light Snow
8:30 AM 6.8 °F -12.9 °F 1.4 °F 79% 29.85 in 0.8 mi NNW 19.6 mph 28.8 mph 0.01 in Snow Light Snow
8:44 AM 6.8 °F -13.8 °F 1.4 °F 79% 29.84 in 0.5 mi NNW 21.9 mph 27.6 mph 0.01 in Snow Snow
8:52 AM 7.0 °F -14.0 °F 1.9 °F 80% 29.95 in 0.5 mi NNW 23.0 mph 27.6 mph 0.01 in Snow Snow
9:52 AM 7.0 °F -12.6 °F 1.9 °F 80% 29.96 in 0.8 mi NNW 19.6 mph 29.9 mph 0.01 in Snow Light Snow
10:30 AM 6.8 °F -14.3 °F 1.4 °F 79% 29.86 in 0.5 mi NNW 23.0 mph 31.1 mph 0.01 in Snow Snow
10:52 AM 7.0 °F -14.0 °F 3.0 °F 84% 29.97 in 0.5 mi NNW 23.0 mph 29.9 mph 0.01 in Fog , Snow Snow
11:40 AM 8.6 °F -11.9 °F 1.4 °F 73% 29.84 in 0.8 mi NNW 23.0 mph 33.4 mph 0.00 in Snow Light Snow
11:52 AM 8.1 °F -12.6 °F 1.9 °F 76% 29.95 in 0.8 mi NNW 23.0 mph 31.1 mph 0.00 in Snow Light Snow
12:16 PM 8.6 °F -12.3 °F 1.4 °F 73% 29.84 in 1.0 mi NNW 24.2 mph 33.4 mph 0.00 in Snow Light Snow
12:52 PM 8.1 °F -12.6 °F 3.0 °F 80% 29.94 in 1.2 mi NNW 23.0 mph 32.2 mph 0.00 in Snow Light Snow
1:52 PM 9.0 °F -12.6 °F 3.9 °F 80% 29.94 in 1.0 mi NNW 26.5 mph 33.4 mph 0.01 in Snow Light Snow
2:24 PM 10.4 °F -11.0 °F 3.2 °F 73% 29.84 in 0.8 mi NNW 27.6 mph 38.0 mph 0.00 in Snow Light Snow
2:33 PM 8.6 °F -13.1 °F 3.2 °F 79% 29.83 in 0.8 mi NNW 26.5 mph 36.8 mph 0.00 in Snow Light Snow
2:40 PM 10.4 °F -12.0 °F 3.2 °F 73% 29.83 in 1.0 mi NNW 31.1 mph 38.0 mph 0.00 in Snow Light Snow
2:52 PM 10.0 °F -11.5 °F 3.9 °F 76% 29.95 in 1.2 mi NNW 27.6 mph 36.8 mph 0.00 in Snow Light Snow
3:03 PM 10.4 °F -11.0 °F 3.2 °F 73% 29.84 in 1.0 mi NNW 27.6 mph 38.0 mph 0.00 in Snow Light Snow
3:24 PM 10.4 °F -11.7 °F 3.2 °F 73% 29.84 in 0.8 mi NNW 29.9 mph 39.1 mph 0.00 in Snow Light Snow
3:52 PM 10.0 °F -12.8 °F 3.9 °F 76% 29.95 in 0.8 mi NNW 32.2 mph 39.1 mph 0.00 in Snow Light Snow
4:02 PM 10.4 °F -11.0 °F 5.0 °F 79% 29.84 in 1.0 mi NNW 27.6 mph 38.0 mph 0.00 in Snow Light Snow
4:22 PM 10.4 °F -9.5 °F 3.2 °F 73% 29.85 in 2.5 mi NNW 23.0 mph 33.4 mph 0.00 in   Overcast
4:30 PM 10.4 °F -9.9 °F 5.0 °F 79% 29.86 in 5.0 mi NNW 24.2 mph 29.9 mph 0.00 in Snow Blowing Snow
4:44 PM 10.4 °F -10.3 °F 5.0 °F 79% 29.86 in 1.8 mi NW 25.3 mph 33.4 mph 0.00 in Snow Light Snow
4:52 PM 9.0 °F -14.0 °F 3.9 °F 80% 29.98 in 0.8 mi NNW 31.1 mph 41.4 mph 0.00 in Snow Light Snow
4:58 PM 8.6 °F -13.8 °F 3.2 °F 79% 29.87 in 1.0 mi NNW 28.8 mph 42.6 mph 0.00 in Snow Light Snow
5:12 PM 8.6 °F -12.7 °F 3.2 °F 79% 29.88 in 3.0 mi NW 25.3 mph 41.4 mph 0.00 in Snow Blowing Snow
5:45 PM 8.6 °F -12.7 °F 1.4 °F 73% 29.90 in 6.0 mi NW 25.3 mph 33.4 mph 0.00 in   Overcast
5:52 PM 7.0 °F -15.3 °F 1.9 °F 80% 30.01 in 4.0 mi NW 26.5 mph 33.4 mph 0.00 in Snow Blowing Snow
6:52 PM 7.0 °F -14.0 °F 1.0 °F 77% 30.03 in 7.0 mi NW 23.0 mph 35.7 mph 0.00 in   Overcast
7:52 PM 6.1 °F -17.2 °F -0.0 °F 76% 30.04 in 4.0 mi NW 28.8 mph 35.7 mph 0.00 in Snow Blowing Snow
7:59 PM 6.8 °F -15.9 °F -0.4 °F 72% 29.93 in 4.0 mi NW 27.6 mph 35.7 mph N/A Snow Blowing Snow
8:23 PM 6.8 °F -15.5 °F -0.4 °F 72% 29.94 in 4.0 mi NW 26.5 mph 34.5 mph 0.00 in   Overcast
8:43 PM 5.0 °F -18.7 °F -0.4 °F 78% 29.93 in 2.5 mi NW 28.8 mph 38.0 mph 0.00 in   Overcast
8:52 PM 5.0 °F -17.9 °F -0.9 °F 76% 30.07 in 2.5 mi NW 26.5 mph 40.3 mph 0.00 in Snow Blowing Snow
8:59 PM 5.0 °F -18.7 °F -0.4 °F 78% 29.95 in 3.0 mi NW 28.8 mph 40.3 mph N/A Snow Blowing Snow
9:06 PM 6.8 °F -16.2 °F -0.4 °F 72% 29.95 in 2.5 mi NW 28.8 mph 38.0 mph 0.00 in   Overcast
9:24 PM 3.2 °F -21.8 °F -2.2 °F 78% 29.95 in 6.0 mi NW 31.1 mph 39.1 mph 0.00 in Snow Blowing Snow
9:52 PM 3.0 °F -20.2 °F -2.9 °F 76% 30.09 in 7.0 mi NW 25.3 mph 38.0 mph 0.00 in   Mostly Cloudy
10:52 PM 1.9 °F -22.4 °F -5.1 °F 72% 30.10 in 9.0 mi NW 27.6 mph 34.5 mph N/A   Scattered Clouds
11:52 PM 1.9 °F -22.4 °F -5.1 °F 72% 30.13 in 8.0 mi NW 27.6 mph 39.1 mph N/A   Clear